AAL1872 KMLB-KCLT

Flight info

Callsign AAL1872
Flight time 1h 9m
Altitude 31000
Route WORMS GUANO BKENI VIYAP CHECR STOCR4
Aircraft A319/M-SDE2E3FGHIRWXY/L

Departure

Time 2026-04-19 23:48
Airport Melbourne Orlando International Airport (KMLB)

Arrival

Time 2026-04-20 00:58
Airport Charlotte Douglas International Airport (KCLT)
Time Latitude Longitude Altitude Speed Heading
2026-04-19 23:44 28.09979 -80.63004 25 ft 0 kts 282°
2026-04-19 23:44 28.09981 -80.63011 25 ft 6 kts 281°
2026-04-19 23:45 28.10003 -80.63129 25 ft 19 kts 293°
2026-04-19 23:45 28.10090 -80.63248 25 ft 19 kts 308°
2026-04-19 23:45 28.10112 -80.63399 25 ft 19 kts 267°
2026-04-19 23:45 28.10105 -80.63557 25 ft 20 kts 266°
2026-04-19 23:46 28.10100 -80.63718 25 ft 22 kts 269°
2026-04-19 23:46 28.10092 -80.63937 27 ft 33 kts 267°
2026-04-19 23:46 28.10078 -80.64237 28 ft 39 kts 267°
2026-04-19 23:46 28.10065 -80.64535 29 ft 37 kts 267°
2026-04-19 23:47 28.10053 -80.64821 31 ft 35 kts 266°
2026-04-19 23:47 28.10040 -80.65093 34 ft 33 kts 267°
2026-04-19 23:47 28.10027 -80.65347 35 ft 31 kts 267°
2026-04-19 23:47 28.10083 -80.65479 35 ft 19 kts
2026-04-19 23:48 28.10156 -80.65400 35 ft 14 kts 81°
2026-04-19 23:48 28.10181 -80.65009 32 ft 90 kts 86°
2026-04-19 23:48 28.10228 -80.64005 65 ft 155 kts 88°
2026-04-19 23:48 28.10299 -80.62769 797 ft 157 kts 87°
2026-04-19 23:49 28.10366 -80.61491 1441 ft 175 kts 88°
2026-04-19 23:49 28.10466 -80.60118 2136 ft 191 kts 77°
2026-04-19 23:49 28.11220 -80.58800 2813 ft 213 kts 38°
2026-04-19 23:49 28.12649 -80.58167 3412 ft 232 kts
2026-04-19 23:50 28.14256 -80.58617 3964 ft 251 kts 325°
2026-04-19 23:50 28.15382 -80.60139 4534 ft 266 kts 289°
2026-04-19 23:50 28.15551 -80.62230 5303 ft 272 kts 258°
2026-04-19 23:50 28.15197 -80.64324 6289 ft 274 kts 264°
2026-04-19 23:51 28.15544 -80.66454 7151 ft 282 kts 297°
2026-04-19 23:51 28.16880 -80.68057 8061 ft 287 kts 327°
2026-04-19 23:51 28.18650 -80.69132 8986 ft 289 kts 332°
2026-04-19 23:51 28.20433 -80.70182 9817 ft 292 kts 329°
2026-04-19 23:52 28.22128 -80.71298 10604 ft 295 kts 327°
2026-04-19 23:52 28.23929 -80.72601 11131 ft 310 kts 324°
2026-04-19 23:52 28.25754 -80.74014 11511 ft 328 kts 323°
2026-04-19 23:52 28.27685 -80.75568 11883 ft 346 kts 323°
2026-04-19 23:53 28.29695 -80.77218 12224 ft 365 kts 322°
2026-04-19 23:53 28.31815 -80.78977 12542 ft 383 kts 322°
2026-04-19 23:53 28.33640 -80.80501 12814 ft 397 kts 322°
2026-04-19 23:53 28.35902 -80.82396 13429 ft 406 kts 322°
2026-04-19 23:54 28.38173 -80.84301 14240 ft 407 kts 322°
2026-04-19 23:54 28.40452 -80.86217 14990 ft 410 kts 321°
2026-04-19 23:54 28.42740 -80.88145 15689 ft 414 kts 321°
2026-04-19 23:54 28.45087 -80.90127 16379 ft 417 kts 321°
2026-04-19 23:55 28.47411 -80.92090 17030 ft 420 kts 320°
2026-04-19 23:55 28.49755 -80.94074 17655 ft 423 kts 320°
2026-04-19 23:55 28.52127 -80.96081 18261 ft 426 kts 320°
2026-04-19 23:55 28.54505 -80.98096 18846 ft 429 kts 320°
2026-04-19 23:56 28.56863 -81.00095 19402 ft 432 kts 320°
2026-04-19 23:56 28.59249 -81.02119 19943 ft 435 kts 320°
2026-04-19 23:56 28.61700 -81.04200 20477 ft 438 kts 319°
2026-04-19 23:56 28.64165 -81.06293 20993 ft 441 kts 319°
2026-04-19 23:57 28.66575 -81.08342 21482 ft 444 kts 319°
2026-04-19 23:57 28.69054 -81.10450 21957 ft 447 kts 319°
2026-04-19 23:57 28.71567 -81.12588 22421 ft 449 kts 319°
2026-04-19 23:57 28.74089 -81.14737 22870 ft 452 kts 319°
2026-04-19 23:58 28.76622 -81.16895 23303 ft 454 kts 319°
2026-04-19 23:58 28.79167 -81.19067 23715 ft 457 kts 318°
2026-04-19 23:58 28.81719 -81.21245 24107 ft 459 kts 318°
2026-04-19 23:58 28.84293 -81.23444 24481 ft 461 kts 318°
2026-04-19 23:59 28.86870 -81.25647 24840 ft 463 kts 318°
2026-04-19 23:59 28.89485 -81.27886 25180 ft 464 kts 318°
2026-04-19 23:59 28.92058 -81.30090 25495 ft 466 kts 318°
2026-04-19 23:59 28.94090 -81.31831 25734 ft 468 kts 318°
2026-04-20 00:00 28.97137 -81.34428 26077 ft 471 kts 319°
2026-04-20 00:00 28.99982 -81.36359 26340 ft 480 kts 328°
2026-04-20 00:00 29.03147 -81.37758 26614 ft 489 kts 338°
2026-04-20 00:00 29.06535 -81.38539 26873 ft 499 kts 348°
2026-04-20 00:01 29.10015 -81.38772 27165 ft 504 kts 354°
2026-04-20 00:01 29.13515 -81.38676 27482 ft 506 kts 358°
2026-04-20 00:01 29.20548 -81.38068 28097 ft 505 kts 359°
2026-04-20 00:02 29.24055 -81.37753 28383 ft 504 kts 358°
2026-04-20 00:02 29.27558 -81.37451 28662 ft 504 kts 358°
2026-04-20 00:02 29.31078 -81.37161 28937 ft 503 kts 358°
2026-04-20 00:02 29.34559 -81.36881 29206 ft 502 kts 358°
2026-04-20 00:03 29.38024 -81.36607 29471 ft 502 kts 358°
2026-04-20 00:03 29.41504 -81.36334 29731 ft 501 kts 358°
2026-04-20 00:03 29.45016 -81.36060 29988 ft 501 kts 357°
2026-04-20 00:03 29.48464 -81.35790 30235 ft 500 kts 357°
2026-04-20 00:04 29.51941 -81.35519 30479 ft 500 kts 357°
2026-04-20 00:04 29.55247 -81.35262 30708 ft 500 kts 357°
2026-04-20 00:04 29.58741 -81.34986 30943 ft 499 kts 357°
2026-04-20 00:05 29.65594 -81.34689 31033 ft 492 kts 352°
2026-04-20 00:05 29.72457 -81.34995 31048 ft 489 kts 350°
2026-04-20 00:06 29.79248 -81.35387 31068 ft 489 kts 350°
2026-04-20 00:06 29.86071 -81.35775 31081 ft 489 kts 350°
2026-04-20 00:07 29.92863 -81.36153 31086 ft 489 kts 350°
2026-04-20 00:07 29.99626 -81.36526 31087 ft 489 kts 350°
2026-04-20 00:08 30.06414 -81.36900 31088 ft 489 kts 350°
2026-04-20 00:08 30.13194 -81.37273 31088 ft 489 kts 350°
2026-04-20 00:09 30.19959 -81.37641 31088 ft 489 kts 350°
2026-04-20 00:09 30.26764 -81.38014 31088 ft 489 kts 350°
2026-04-20 00:10 30.33502 -81.38387 31088 ft 489 kts 350°
2026-04-20 00:10 30.40229 -81.38756 31089 ft 484 kts 350°
2026-04-20 00:11 30.46972 -81.39136 31092 ft 489 kts 350°
2026-04-20 00:11 30.53753 -81.39513 31103 ft 489 kts 350°
2026-04-20 00:12 30.60546 -81.39892 31118 ft 488 kts 350°
2026-04-20 00:12 30.67334 -81.40271 31126 ft 488 kts 350°
2026-04-20 00:13 30.74124 -81.40651 31135 ft 488 kts 350°
2026-04-20 00:13 30.80876 -81.41030 31138 ft 488 kts 350°
2026-04-20 00:14 30.87643 -81.41412 31136 ft 488 kts 350°
2026-04-20 00:14 30.94423 -81.41800 31131 ft 489 kts 351°
2026-04-20 00:15 31.01223 -81.42190 31129 ft 490 kts 352°
2026-04-20 00:15 31.08044 -81.42575 31127 ft 490 kts 352°
2026-04-20 00:16 31.14769 -81.42947 31126 ft 490 kts 352°
2026-04-20 00:16 31.21605 -81.42982 31126 ft 496 kts 359°
2026-04-20 00:17 31.28447 -81.41863 31127 ft 502 kts
2026-04-20 00:17 31.35181 -81.39558 31130 ft 507 kts 14°
2026-04-20 00:18 31.41853 -81.36807 31132 ft 508 kts 15°
2026-04-20 00:18 31.48519 -81.34051 31134 ft 507 kts 15°
2026-04-20 00:19 31.55139 -81.31335 31134 ft 507 kts 15°
2026-04-20 00:19 31.61859 -81.28585 31135 ft 507 kts 15°
2026-04-20 00:20 31.68529 -81.25854 31137 ft 507 kts 15°
2026-04-20 00:20 31.75229 -81.23106 31141 ft 507 kts 15°
2026-04-20 00:21 31.81906 -81.20364 31146 ft 507 kts 15°
2026-04-20 00:21 31.88558 -81.17628 31150 ft 507 kts 15°
2026-04-20 00:22 31.95255 -81.14871 31151 ft 507 kts 15°
2026-04-20 00:22 32.01888 -81.12133 31151 ft 507 kts 15°
2026-04-20 00:23 32.08573 -81.09371 31151 ft 508 kts 15°
2026-04-20 00:23 32.15262 -81.06609 31151 ft 508 kts 15°
2026-04-20 00:24 32.21928 -81.03854 31151 ft 509 kts 15°
2026-04-20 00:24 32.28598 -81.01088 31150 ft 509 kts 15°
2026-04-20 00:25 32.35302 -80.98302 31149 ft 510 kts 15°
2026-04-20 00:25 32.41982 -80.95520 31149 ft 510 kts 15°
2026-04-20 00:26 32.48662 -80.92735 31150 ft 510 kts 15°
2026-04-20 00:26 32.55371 -80.89933 31152 ft 511 kts 15°
2026-04-20 00:27 32.62068 -80.87134 31153 ft 511 kts 15°
2026-04-20 00:27 32.68774 -80.84289 31154 ft 512 kts 17°
2026-04-20 00:28 32.75286 -80.80814 31160 ft 516 kts 23°
2026-04-20 00:28 32.81657 -80.76719 31168 ft 517 kts 25°
2026-04-20 00:29 32.87888 -80.72634 31175 ft 517 kts 25°
2026-04-20 00:29 32.94192 -80.68516 31178 ft 517 kts 25°
2026-04-20 00:30 33.00500 -80.64403 31178 ft 518 kts 25°
2026-04-20 00:30 33.06705 -80.60354 31178 ft 522 kts 25°
2026-04-20 00:31 33.12119 -80.56818 31174 ft 526 kts 25°
2026-04-20 00:31 33.19356 -80.52099 31172 ft 527 kts 25°
2026-04-20 00:32 33.25802 -80.47880 31164 ft 527 kts 25°
2026-04-20 00:32 33.32250 -80.43647 31158 ft 527 kts 25°
2026-04-20 00:33 33.38670 -80.39420 31152 ft 527 kts 25°
2026-04-20 00:33 33.45097 -80.35182 31147 ft 527 kts 25°
2026-04-20 00:34 33.51534 -80.30907 31147 ft 527 kts 25°
2026-04-20 00:34 33.57937 -80.26656 31149 ft 528 kts 25°
2026-04-20 00:35 33.64381 -80.22382 31096 ft 524 kts 25°
2026-04-20 00:35 33.67553 -80.20269 30541 ft 508 kts 25°
2026-04-20 00:35 33.70594 -80.18242 29187 ft 502 kts 25°
2026-04-20 00:35 33.73621 -80.16228 27263 ft 507 kts 25°
2026-04-20 00:36 33.76777 -80.14133 25716 ft 526 kts 25°
2026-04-20 00:36 33.79982 -80.12002 24413 ft 529 kts 25°
2026-04-20 00:36 33.83142 -80.09892 23799 ft 520 kts 25°
2026-04-20 00:36 33.86275 -80.07793 23544 ft 510 kts 25°
2026-04-20 00:37 33.89368 -80.05728 23293 ft 509 kts 25°
2026-04-20 00:37 33.92493 -80.03642 23039 ft 507 kts 25°
2026-04-20 00:37 33.95584 -80.01575 22787 ft 505 kts 25°
2026-04-20 00:37 33.98668 -79.99721 22522 ft 498 kts 15°
2026-04-20 00:38 34.02013 -79.98950 22261 ft 480 kts 355°
2026-04-20 00:38 34.05208 -79.99522 22007 ft 462 kts 335°
2026-04-20 00:38 34.07978 -80.01212 21757 ft 448 kts 321°
2026-04-20 00:38 34.10561 -80.03276 21476 ft 445 kts 320°
2026-04-20 00:39 34.13171 -80.05280 21155 ft 445 kts 322°
2026-04-20 00:39 34.15826 -80.07142 20701 ft 444 kts 324°
2026-04-20 00:39 34.18502 -80.08884 20207 ft 441 kts 326°
2026-04-20 00:39 34.21219 -80.10570 19705 ft 438 kts 327°
2026-04-20 00:40 34.23846 -80.12157 19214 ft 435 kts 327°
2026-04-20 00:40 34.26581 -80.13789 18707 ft 431 kts 328°
2026-04-20 00:40 34.29273 -80.15386 18205 ft 428 kts 328°
2026-04-20 00:40 34.31863 -80.16921 17706 ft 425 kts 328°
2026-04-20 00:41 34.34503 -80.18488 17211 ft 421 kts 328°
2026-04-20 00:41 34.37103 -80.20030 16713 ft 419 kts 328°
2026-04-20 00:41 34.39690 -80.21567 16225 ft 415 kts 328°
2026-04-20 00:41 34.42289 -80.23110 15760 ft 413 kts 328°
2026-04-20 00:42 34.44841 -80.24628 15281 ft 409 kts 328°
2026-04-20 00:42 34.47407 -80.26154 14814 ft 406 kts 328°
2026-04-20 00:42 34.49927 -80.27654 14317 ft 404 kts 328°
2026-04-20 00:42 34.52338 -80.29091 13851 ft 399 kts 328°
2026-04-20 00:43 34.54866 -80.30598 13380 ft 396 kts 328°
2026-04-20 00:43 34.57320 -80.32063 12898 ft 393 kts 328°
2026-04-20 00:43 34.59719 -80.33580 12443 ft 387 kts 324°
2026-04-20 00:43 34.61971 -80.35387 12155 ft 383 kts 318°
2026-04-20 00:44 34.64055 -80.37339 11704 ft 378 kts 316°
2026-04-20 00:44 34.66118 -80.39342 11257 ft 374 kts 316°
2026-04-20 00:44 34.68119 -80.41289 11028 ft 372 kts 317°
2026-04-20 00:44 34.70144 -80.43260 10827 ft 368 kts 316°
2026-04-20 00:45 34.72082 -80.45155 10435 ft 335 kts 316°
2026-04-20 00:45 34.73814 -80.46847 10067 ft 305 kts 316°
2026-04-20 00:45 34.75372 -80.48377 9725 ft 281 kts 316°
2026-04-20 00:45 34.76858 -80.49837 9398 ft 260 kts 316°
2026-04-20 00:46 34.78216 -80.51176 9094 ft 249 kts 316°
2026-04-20 00:46 34.79543 -80.52489 8793 ft 243 kts 315°
2026-04-20 00:46 34.80737 -80.54062 8588 ft 255 kts 305°
2026-04-20 00:46 34.81776 -80.55802 8662 ft 251 kts 303°
2026-04-20 00:47 34.82767 -80.57533 8397 ft 249 kts 302°
2026-04-20 00:47 34.83749 -80.59280 7933 ft 251 kts 303°
2026-04-20 00:47 34.84721 -80.61040 7535 ft 250 kts 302°
2026-04-20 00:47 34.85676 -80.62791 7150 ft 249 kts 302°
2026-04-20 00:48 34.86628 -80.64562 6757 ft 249 kts 302°
2026-04-20 00:48 34.87572 -80.66346 6368 ft 248 kts 302°
2026-04-20 00:48 34.88481 -80.68095 5989 ft 248 kts 302°
2026-04-20 00:48 34.89394 -80.69878 5669 ft 244 kts 302°
2026-04-20 00:49 34.90287 -80.71638 5313 ft 244 kts 302°
2026-04-20 00:49 34.91171 -80.73392 4874 ft 247 kts 302°
2026-04-20 00:49 34.92073 -80.75194 4485 ft 247 kts 302°
2026-04-20 00:49 34.92855 -80.76759 4152 ft 247 kts 302°
2026-04-20 00:50 34.93808 -80.78672 3898 ft 240 kts 302°
2026-04-20 00:50 34.94667 -80.80394 3736 ft 232 kts 302°
2026-04-20 00:50 34.95447 -80.81956 3582 ft 224 kts 302°
2026-04-20 00:50 34.96273 -80.83604 3419 ft 216 kts 302°
2026-04-20 00:51 34.97042 -80.85135 3267 ft 208 kts 302°
2026-04-20 00:51 34.97791 -80.86620 3117 ft 201 kts 302°
2026-04-20 00:51 34.98511 -80.88042 3022 ft 191 kts 302°
2026-04-20 00:51 34.99196 -80.89390 3012 ft 178 kts 302°
2026-04-20 00:52 34.99816 -80.90605 2996 ft 161 kts 302°
2026-04-20 00:52 35.00586 -80.91451 2979 ft 144 kts 336°
2026-04-20 00:52 35.01567 -80.91765 3018 ft 148 kts 348°
2026-04-20 00:52 35.02594 -80.91908 3012 ft 148 kts 352°
2026-04-20 00:53 35.03625 -80.92002 3011 ft 149 kts 353°
2026-04-20 00:53 35.04660 -80.92088 3010 ft 149 kts 353°
2026-04-20 00:53 35.05691 -80.92172 3009 ft 149 kts 353°
2026-04-20 00:53 35.06716 -80.92258 3009 ft 148 kts 353°
2026-04-20 00:54 35.07750 -80.92346 3008 ft 148 kts 353°
2026-04-20 00:54 35.08787 -80.92436 2956 ft 149 kts 353°
2026-04-20 00:54 35.09684 -80.92513 2781 ft 148 kts 353°
2026-04-20 00:54 35.10541 -80.92587 2636 ft 146 kts 353°
2026-04-20 00:55 35.11678 -80.92684 2417 ft 147 kts 354°
2026-04-20 00:55 35.12683 -80.92770 2223 ft 146 kts 354°
2026-04-20 00:55 35.13690 -80.92858 2029 ft 146 kts 354°
2026-04-20 00:55 35.14688 -80.92944 1816 ft 138 kts 354°
2026-04-20 00:56 35.15625 -80.93025 1634 ft 133 kts 354°
2026-04-20 00:56 35.16554 -80.93106 1465 ft 133 kts 354°
2026-04-20 00:56 35.17476 -80.93185 1292 ft 132 kts 354°
2026-04-20 00:56 35.18393 -80.93263 1121 ft 132 kts 355°
2026-04-20 00:57 35.19301 -80.93341 947 ft 132 kts 355°
2026-04-20 00:57 35.20198 -80.93417 787 ft 131 kts 355°
2026-04-20 00:57 35.21027 -80.93489 758 ft 106 kts 355°
2026-04-20 00:57 35.21617 -80.93540 758 ft 69 kts 356°
2026-04-20 00:58 35.21932 -80.93566 758 ft 36 kts 356°
2026-04-20 00:58 35.22001 -80.93684 757 ft 18 kts 224°
2026-04-20 00:58 35.21915 -80.93801 757 ft 18 kts 229°
2026-04-20 00:58 35.21859 -80.93890 757 ft 9 kts 262°
2026-04-20 00:59 35.21859 -80.93893 757 ft 0 kts 265°
2026-04-20 00:59 35.21865 -80.93912 757 ft 6 kts 306°
2026-04-20 00:59 35.21901 -80.93953 757 ft 7 kts 331°
2026-04-20 01:00 35.21938 -80.93939 757 ft 9 kts 60°
2026-04-20 01:00 35.22008 -80.93922 757 ft 11 kts 328°
2026-04-20 01:00 35.22024 -80.93935 757 ft 0 kts 332°